#timestamp,LO_Frequency,Hit,StdDev 
1610316015.5,286047004.1,N
1610316035.3,286047002.9,N
1610316055.2,286047007.7,N
1610316075.9,286047010.3,N
1610316095.7,286047008.9,N
1610316115.6,286047009.9,N
1610316135.4,286047007.3,N
1610316155.3,286047003.4,N
1610316175.1,286047007.8,N
1610316176.0,286047007.8,N
1610316195.8,286047005.6,N
1610316215.7,286047007.0,N
1610316235.5,286047005.6,N
1610316255.4,286047010.1,N
1610316275.2,286047002.1,N
1610316295.0,286047005.1,N
1610316295.9,286047005.1,N
1610316315.8,286047008.7,N
1610316335.6,286047005.4,N
1610316355.4,286046997.2,N
1610316375.3,286046999.6,N
1610316395.1,286046991.9,N
1610316415.9,286047000.3,N
1610316435.7,286046995.5,N
1610316455.5,286046990.9,N
1610316475.4,286046989.6,N
1610316495.2,286046994.3,N
1610316515.0,286046990.6,N
1610316515.9,286046990.6,N
1610316535.8,286046987.5,N
1610316555.6,286046989.6,N
1610316575.5,286046990.7,N
1610316595.3,286046989.8,N
1610316615.1,286046988.0,N
1610316635.9,286046986.1,N
1610316655.7,286046987.1,N
1610316675.5,286046984.5,N
1610316695.4,286046980.5,N
1610316715.2,286046979.7,N
1610316735.1,286046970.7,Y
1610316736.0,286046970.7,P
1610316755.8,286046980.0,N
1610316775.6,286046986.1,N
1610316795.5,286046986.2,N
1610316815.3,286046978.7,N
1610316835.2,286046981.2,N
1610316855.9,286046980.7,N
1610316875.7,286046981.2,N
1610316895.6,286046982.9,N
1610316915.4,286046987.6,N
1610316935.2,286046987.5,N
1610316955.1,286046983.3,N
1610316956.0,286046983.3,N
1610316975.8,286046978.6,Y
1610316995.7,286046997.9,P
1610317015.5,286047002.0,N
1610317035.3,286047002.2,N
1610317055.2,286046994.1,N
1610317075.0,286046989.2,N
1610317075.9,286046989.2,N
1610317095.7,286046995.4,N
1610317115.6,286047000.7,N
1610317135.4,286046978.7,Y
1610317155.3,286046990.7,P
1610317175.1,286046994.7,N
1610317176.0,286046994.7,N
1610317195.9,286046990.8,Y
1610317215.7,286047005.8,P
1610317235.5,286047000.3,N
1610317255.4,286046999.4,N
1610317275.2,286046996.9,N
1610317295.0,286046992.8,N
1610317296.0,286046992.8,N
1610317315.8,286046997.5,N
1610317335.6,286047001.2,N
1610317355.5,286046998.9,N
1610317375.3,286047002.9,N
1610317395.1,286046999.5,N
1610317415.9,286047001.3,N
1610317435.7,286047009.0,N
1610317455.6,286047003.7,N
1610317475.4,286046994.2,N
1610317495.2,286046996.0,N
1610317515.1,286046992.6,N
1610317516.0,286046992.6,N
1610317535.8,286046990.2,N
1610317555.6,286046987.3,N
1610317575.5,286046984.6,N
1610317595.3,286046973.0,Y
1610317615.2,286046987.5,P
1610317635.0,286046995.5,N
1610317635.9,286046995.5,N
1610317655.7,286046995.1,N
1610317675.6,286046992.5,N
1610317695.4,286046993.8,N
1610317715.3,286046997.2,N
1610317735.1,286046987.6,Y
1610317755.8,286046995.0,P
1610317775.7,286047002.7,P
1610317795.5,286046998.1,N
1610317815.4,286047004.1,N
1610317835.2,286047001.7,N
1610317855.0,286047009.5,N
1610317855.9,286047009.5,N
1610317875.8,286047011.1,N
1610317895.6,286047008.8,N
1610317915.4,286047012.1,N
1610317935.3,286047015.2,N
1610317955.1,286047014.0,N
1610317975.9,286047011.7,N
1610317995.7,286047004.1,N
1610318015.5,286047006.9,N
1610318035.4,286046997.4,N
1610318055.2,286046999.4,N
1610318075.0,286047007.1,N
1610318075.9,286047007.1,N
1610318095.8,286046993.4,N
1610318115.6,286046997.3,N
1610318135.5,286046994.9,N
1610318155.3,286046998.2,N
1610318175.1,286047000.4,N
1610318195.9,286047008.7,N
1610318215.7,286047006.7,N
1610318235.6,286047007.9,N
1610318255.4,286047010.4,N
1610318275.2,286047004.5,N
1610318295.1,286046994.0,N
1610318296.0,286046994.0,N
1610318315.8,286046988.7,N
1610318335.6,286046999.6,N
1610318355.5,286047001.1,N
1610318375.3,286046995.7,N
1610318395.2,286046995.1,N
1610318415.9,286046999.4,N
1610318435.7,286046988.9,N
1610318455.6,286046994.6,N
1610318475.4,286046993.8,N
1610318495.2,286046994.5,N
1610318515.1,286046994.8,N
1610318516.0,286046994.8,N
1610318535.8,286046993.7,N
1610318555.7,286046998.8,N
1610318575.5,286047009.0,N
1610318595.3,286047005.4,N
1610318615.2,286047004.5,N
1610318635.0,286047001.3,N
1610318635.9,286047001.3,N
1610318655.8,286047001.1,N
1610318675.6,286047010.2,N
1610318695.4,286047007.9,N
1610318715.3,286047004.6,N
1610318735.1,286047002.5,N
1610318755.8,286047005.7,N
1610318775.7,286047006.1,N
1610318795.5,286047007.8,N
1610318815.4,286047008.3,N
1610318835.2,286047012.1,N
1610318855.0,286047008.0,N
1610318855.9,286047008.0,N
1610318875.8,286047008.7,N
1610318895.6,286047005.0,N
1610318915.5,286047005.9,N
1610318935.3,286047005.4,N
1610318955.1,286047006.2,N
1610318975.9,286047004.2,N
1610318995.7,286047003.6,N
1610319015.6,286047007.7,N
1610319035.4,286047007.6,N
1610319055.2,286047009.6,N
1610319075.1,286047011.1,N
1610319076.0,286047011.1,N
1610319095.8,286047018.4,Y
1610319115.6,286047005.1,P
1610319135.5,286047000.4,N
1610319155.3,286047001.2,N
1610319175.2,286047007.2,N
1610319195.9,286047008.6,Y
1610319215.7,286047001.1,P
1610319235.6,286047008.7,P
1610319255.4,286047013.3,P
1610319275.3,286047013.7,N
1610319295.1,286047017.0,Y
1610319296.0,286047017.0,P
1610319315.8,286047013.3,P
1610319335.7,286047017.3,P
1610319355.5,286047018.1,Y
1610319375.3,286047003.0,P
1610319395.2,286047010.3,N
1610319415.0,286047006.7,N
1610319415.9,286047006.7,N
1610319435.8,286047012.3,Y
1610319455.6,286047001.7,P
1610319475.4,286046997.0,N
1610319495.3,286047001.7,N
1610319515.1,286047001.1,N
1610319535.9,286046995.9,N
1610319555.7,286046986.5,Y
1610319575.5,286046984.3,P
1610319595.4,286046992.8,N
